Vorticity
nan nan nan nan nan nan nan nan nan nan nan nan nan nan nan nan nan nan nan nan nan nan nan nan nan nan nan nan nan nan nan nan nan nan nan nan nan nan nan nan nan nan nan
nan 8 5 9 6 7 6 9 8 9 8 8 9 8 8 10 11 6 6 17 14 7 5 5 8 13 11 6 7 7 5 5 6 6 6 6 5 5 5 5 5 5 nan
nan 7 6 6 5 7 10 10 8 7 8 6 9 11 12 10 9 9 8 10 17 14 9 7 8 10 10 7 6 6 6 6 7 6 5 5 6 6 5 5 6 5 nan
nan 3 7 7 7 5 9 10 9 11 7 8 10 11 11 9 11 9 9 8 11 13 16 15 11 9 8 7 6 6 6 5 6 6 6 6 5 6 6 7 7 6 nan
nan 4 8 6 5 7 9 9 9 8 6 9 8 13 12 9 10 7 10 9 9 9 15 16 11 12 9 6 5 6 7 6 6 6 6 6 5 6 6 6 7 7 nan
nan 7 6 7 6 8 9 7 6 7 8 9 11 9 11 8 8 8 10 9 11 11 9 9 10 11 14 9 7 5 6 6 6 6 7 6 6 6 6 7 7 7 nan
nan 8 5 9 7 7 7 8 10 9 6 9 8 7 9 12 8 8 8 10 9 9 8 8 8 11 16 14 10 8 7 6 5 5 5 5 6 6 6 7 7 7 nan
nan 6 6 8 9 5 8 8 7 7 11 8 8 10 6 10 12 9 7 8 8 8 10 8 4 7 11 16 16 12 7 8 7 5 5 5 5 6 6 6 7 8 nan
nan 6 8 4 9 9 8 8 7 6 8 8 10 8 7 10 13 10 8 7 7 7 9 9 10 8 6 9 16 14 11 8 8 6 5 5 5 6 6 7 7 7 nan
nan 9 10 7 6 6 8 8 5 7 10 7 11 7 4 9 10 7 11 13 8 8 8 8 9 9 8 10 11 14 17 6 7 7 6 5 5 6 6 8 9 8 nan
nan 10 9 9 8 8 6 5 8 10 4 8 8 9 10 9 7 7 11 11 10 10 9 8 9 10 9 8 8 13 16 16 7 6 6 6 7 7 7 7 7 9 nan
nan 11 9 10 9 8 6 8 8 6 6 7 7 10 9 6 8 9 11 10 10 11 10 9 8 8 9 9 7 14 14 9 11 10 9 9 8 8 7 7 8 9 nan
nan 14 10 8 8 8 7 8 7 8 9 7 7 7 7 9 10 4 6 8 8 13 13 9 9 8 9 9 12 13 8 10 9 9 9 9 9 9 9 10 9 8 nan
nan 9 11 9 8 9 9 7 8 8 8 8 6 5 7 9 7 9 8 7 10 11 9 15 12 10 8 8 14 10 5 12 7 8 9 9 9 10 10 10 10 11 nan
nan 9 9 10 10 10 8 7 7 6 8 8 9 9 6 7 9 10 7 7 8 8 11 14 10 12 10 12 12 6 10 13 12 8 8 8 9 9 9 9 10 10 nan
nan 9 10 9 10 10 10 8 6 7 6 7 6 7 8 9 10 7 7 10 8 8 7 10 11 9 10 9 12 12 11 12 13 10 9 10 10 9 9 9 9 9 nan
nan 9 8 9 10 10 10 8 6 8 10 6 6 8 6 8 7 8 9 7 9 9 8 7 9 6 8 8 10 13 12 10 13 14 8 9 10 10 10 10 10 9 nan
nan 9 9 9 9 9 9 10 8 9 8 7 7 8 8 9 9 5 7 9 5 9 11 8 5 11 11 9 11 9 11 13 14 17 12 9 8 9 10 9 10 10 nan
nan 12 12 10 10 10 9 9 8 8 8 9 8 8 9 8 6 7 9 11 10 8 8 6 9 9 8 9 11 10 11 10 13 15 13 10 12 10 9 9 9 9 nan
nan 13 12 13 12 11 11 10 10 8 8 9 9 8 8 8 8 11 11 9 7 8 9 9 10 10 9 7 9 9 11 9 12 13 10 12 16 11 10 10 9 8 nan
nan 11 12 12 11 12 16 14 12 11 11 10 9 10 10 9 8 11 12 6 9 11 8 8 7 6 11 15 9 7 7 13 8 6 12 16 10 11 12 11 14 15 nan
nan 9 8 9 10 9 8 11 16 15 11 10 12 11 10 11 13 10 7 6 8 9 5 7 10 10 8 7 8 11 9 10 11 13 9 7 11 15 12 22 20 16 nan
nan 9 8 9 9 10 11 10 8 8 12 14 10 8 11 13 10 10 10 7 7 8 8 8 8 6 6 10 8 9 11 9 8 7 12 9 10 10 10 15 17 17 nan
nan 10 10 9 9 11 13 11 7 7 10 11 11 10 10 8 8 14 10 9 10 11 12 9 8 8 9 9 10 9 8 7 10 10 9 9 12 11 10 5 5 7 nan
nan 11 11 11 11 11 12 10 5 8 10 10 11 12 12 11 13 14 11 10 10 11 13 10 7 6 10 10 10 9 10 8 9 13 10 6 8 8 9 8 2 5 nan
nan nan nan nan nan nan nan nan nan nan nan nan nan nan nan nan nan nan nan nan nan nan nan nan nan nan nan nan nan nan nan nan nan nan nan nan nan nan nan nan nan nan nan
CAPE
191 4 538 578 1167 1086 597 1295 1311 1108 1159 1365 1345 1395 1520 1133 1013 1370 1293 1329 929 745 1109 1180 1265 1293 1404 1607 2087 2244 2336 2466 2248 1923 1835 2305 2643 1865 1509 1429 1222 1488 1971
45 38 55 586 774 955 1328 1659 1532 1574 1509 1153 1369 1757 1785 1634 1529 1411 1414 1552 1372 1111 984 1114 1172 1212 1494 1693 1972 2210 2370 2498 2687 2685 2879 2639 2234 1809 1912 2320 2019 1868 1559
47 9 23 415 988 1209 1657 1603 1587 1398 999 1205 1636 1690 1899 1776 1570 1592 1366 1383 1457 1459 1423 1326 1316 2081 2098 2093 2180 2515 2729 2811 2843 2475 2419 2435 2493 2153 1922 2015 2221 2341 1706
458 139 149 231 991 1318 1412 2095 1455 1533 1571 1432 1729 1663 1577 1617 1452 1721 1608 1229 1108 868 1309 1873 2240 2465 2667 2089 2841 2880 2866 2774 2913 2712 2599 2460 2423 2476 2658 2883 2721 2521 2206
148 21 198 231 1114 1204 1595 1291 1270 1953 1469 1468 1087 1704 2076 1785 1646 1421 1428 1324 1034 1020 886 1408 1933 2131 1831 2057 2872 2949 3174 2916 2600 2655 2967 2847 2748 2766 2864 2841 2854 2855 2716
125 120 107 262 809 1584 2251 1534 1696 1538 1695 1539 799 1731 1573 1788 1192 1209 1197 832 1132 1055 721 1126 758 829 1858 2153 2547 3011 3010 2818 2850 2708 2662 2670 2655 2663 2653 2649 2553 2518 2519
294 279 605 120 639 1718 1793 1617 2363 1655 1652 1604 792 1045 2694 1833 1527 1192 1004 605 819 938 886 834 882 656 817 1658 1743 2312 2822 2898 2724 2509 2481 2504 2559 2597 2575 2589 2543 2527 2498
314 790 1461 335 647 1243 1534 1813 1830 1396 1243 1450 1835 2112 1766 1550 1240 1118 1101 917 694 528 644 775 649 1331 1259 904 775 1715 2085 2441 2668 2317 2370 2286 2226 2242 2225 2225 2250 2216 2114
879 718 1259 1325 1051 1369 970 1793 2392 1821 1673 1529 1700 1575 2113 1940 1414 1299 1650 1339 1359 849 515 616 687 989 1094 1329 1141 1364 1696 1642 2157 2675 2581 2447 2352 2346 2386 2224 2121 2045 1895
1105 1263 1281 1348 1328 1356 1477 1600 1872 1823 2368 2451 1610 1660 1453 1759 1454 2048 2317 1552 1525 1269 1029 902 820 864 891 846 1438 1243 1458 1349 1781 2450 2575 2561 2500 2488 2585 2554 2299 1913 1648
1457 1218 1348 1399 1488 1557 1637 1797 1975 1966 1671 1721 1176 1523 1533 1508 1516 1518 1826 1855 2270 1477 1431 1279 1159 1103 1092 946 719 994 1272 1147 1181 1641 1994 2120 2279 2577 2822 2833 2327 2046 1837
2861 1513 1227 1385 1606 1530 1674 1853 2211 2201 2480 2492 2606 1829 2026 2667 1856 1662 2041 2263 1879 1235 1383 1503 1287 1238 1311 1295 1077 1037 1065 1125 1147 1208 1372 1722 2131 2426 2357 2386 2462 2259 2210
1863 1343 1532 1468 1465 1653 1664 1733 2237 2056 2145 2151 1998 1463 1188 1271 2088 1491 1067 1226 1182 1288 1793 1600 1526 1394 1309 1391 1334 1067 1369 740 643 706 790 984 1246 1516 1757 2128 2283 2177 2000
1237 1223 1457 1579 1516 1526 1626 1767 1795 1850 1504 1857 1769 1925 1364 829 1044 1375 941 1284 2580 1434 1198 1684 1717 1656 1628 1472 1541 1298 1157 316 332 244 142 119 184 396 764 1172 1430 1635 1800
1387 1590 1555 1539 1469 1519 1569 1727 1992 1697 1774 1842 1645 1673 1815 985 872 1318 1229 1066 946 1282 1768 1650 1077 1682 1640 1811 1716 1617 1708 800 159 45 0 0 7 51 154 308 567 826 1008
1708 1663 1836 1709 1691 1461 1485 1599 1320 1461 1878 1545 1734 1942 1743 1059 957 1638 1368 1417 1094 1007 859 1096 1016 1188 1125 1090 1345 1522 1573 1331 210 90 14 0 0 0 0 16 113 241 321
1919 1931 2192 2096 1764 1546 1466 1523 1703 1218 1127 1701 1701 1870 2015 2051 1301 718 988 1549 1815 1120 1028 804 1003 1408 2309 1991 1641 1508 1562 1718 1549 302 176 0 0 0 0 0 0 0 13
2426 2170 2132 2332 2123 1735 1649 1633 1514 1167 1451 1663 1588 1874 1901 1674 2091 1895 1218 1711 2772 2161 1259 1424 1929 1656 2312 1854 2442 2090 1624 1197 1440 744 274 70 0 0 0 0 0 0 0
1541 2010 2354 2335 2382 2121 1905 1694 1744 1728 1594 1398 1494 1849 1867 1988 2850 1877 1416 1056 1449 1970 1993 1558 1172 1345 1505 1933 2489 2641 2427 1927 1040 804 125 29 0 0 0 0 0 0 0
1818 1936 2404 2438 2387 2405 2182 1981 1912 1893 1920 1747 1899 1973 2008 2091 2855 3039 2189 2180 1723 1929 2246 2546 1395 972 1097 1909 2377 2597 1974 1818 2060 1672 1245 1272 831 55 0 0 0 0 0
265 871 1601 2081 2335 2611 2672 2518 2576 2574 2602 2142 1971 1999 2120 1887 1528 2052 3157 2786 3059 1808 1113 1882 2130 2249 1428 1082 2552 1446 1411 1367 2072 1793 1819 1959 1877 1980 1461 0 194 0 0
191 225 367 415 700 1168 1120 799 696 2223 2362 2598 2850 2440 2247 1591 1253 820 549 712 1351 2474 2062 1008 1441 2693 3157 2053 1499 1334 1167 3118 2344 1579 2288 2138 1817 2170 1696 2085 1254 1032 9
344 407 387 308 342 363 117 727 702 1138 1579 2095 2352 2654 2465 1735 1576 1976 441 315 243 133 426 2102 2184 2385 2895 2998 3363 3323 2493 2923 1811 2049 1741 1525 1576 1723 1597 981 80 7 0
110 171 162 195 277 282 33 148 347 556 473 1217 1887 2152 2459 2676 2039 1824 1879 1985 2075 1841 1333 1267 1490 1670 1965 2275 3085 3286 2864 3101 3274 1871 1776 1728 1237 1934 1474 1351 0 0 0
21 38 47 89 172 250 13 0 0 43 22 259 757 1278 1806 2080 1706 984 2436 2080 2093 1871 813 1250 1176 1164 808 1095 1424 2513 1483 1342 1197 1105 1963 1431 1149 1101 928 1126 255 0 0
21 12 24 64 45 115 3 0 0 0 0 0 719 926 328 681 892 660 1382 2293 2542 2353 1798 1330 1675 711 334 1126 94 1589 1438 1754 2040 1413 1075 1492 1530 1123 605 578 740 430 19